Time,TemperatureF,DewpointF,PressureIn,WindDirection,WindDirectionDegrees,WindSpeedMPH,WindSpeedGustMPH,Humidity,HourlyPrecipIn,Conditions,Clouds,dailyrainin,SoftwareType,DateUTC
2013-05-09 00:00:00,60.5,52.9,29.92,ESE,112,1.0,1.0,76,0.00,,,0.05,Wunderground v.1.13,2013-05-09 04:00:00,
2013-05-09 00:05:00,60.5,52.9,29.93,ESE,113,2.0,4.0,76,0.00,,,0.00,Wunderground v.1.13,2013-05-09 04:05:00,
2013-05-09 00:10:00,60.6,53.3,29.92,NW,317,1.0,2.0,77,0.66,,,0.03,Wunderground v.1.13,2013-05-09 04:10:00,
2013-05-09 00:15:00,60.1,54.2,29.92,NW,317,1.0,1.0,81,0.25,,,0.05,Wunderground v.1.13,2013-05-09 04:15:00,
2013-05-09 00:25:00,59.2,54.0,29.91,ENE,69,1.0,2.0,83,0.08,,,0.06,Wunderground v.1.13,2013-05-09 04:25:00,
2013-05-09 00:30:00,59.0,54.2,29.91,ENE,70,2.0,2.0,84,0.05,,,0.06,Wunderground v.1.13,2013-05-09 04:30:00,
2013-05-09 00:35:00,58.6,54.1,29.91,ENE,70,1.0,1.0,85,0.00,,,0.06,Wunderground v.1.13,2013-05-09 04:35:00,
2013-05-09 00:45:00,58.1,53.9,29.91,ENE,70,0.0,0.0,86,0.00,,,0.06,Wunderground v.1.13,2013-05-09 04:45:00,
2013-05-09 00:55:00,57.7,54.2,29.91,ENE,66,0.0,2.0,88,0.00,,,0.06,Wunderground v.1.13,2013-05-09 04:55:00,
2013-05-09 01:05:00,57.6,54.4,29.91,ENE,66,1.0,1.0,89,0.00,,,0.06,Wunderground v.1.13,2013-05-09 05:05:00,
2013-05-09 01:15:00,57.3,54.1,29.91,ENE,66,0.0,0.0,89,0.00,,,0.06,Wunderground v.1.13,2013-05-09 05:15:00,
2013-05-09 01:25:00,57.2,54.0,29.91,ENE,66,0.0,0.0,89,0.00,,,0.06,Wunderground v.1.13,2013-05-09 05:25:00,
2013-05-09 01:35:00,57.1,54.2,29.91,ENE,66,0.0,0.0,90,0.00,,,0.06,Wunderground v.1.13,2013-05-09 05:35:00,
2013-05-09 01:45:00,57.1,54.2,29.90,ENE,66,0.0,1.0,90,0.00,,,0.06,Wunderground v.1.13,2013-05-09 05:45:00,
2013-05-09 01:55:00,57.0,54.1,29.90,ENE,65,0.0,0.0,90,0.00,,,0.06,Wunderground v.1.13,2013-05-09 05:55:00,
2013-05-09 02:00:00,57.0,54.1,29.90,ENE,66,0.0,0.0,90,0.00,,,0.06,Wunderground v.1.13,2013-05-09 06:00:00,
2013-05-09 02:05:00,57.0,54.1,29.90,ENE,66,0.0,0.0,90,0.00,,,0.06,Wunderground v.1.13,2013-05-09 06:05:00,
2013-05-09 02:15:00,56.9,54.0,29.89,ENE,66,0.0,0.0,90,0.00,,,0.06,Wunderground v.1.13,2013-05-09 06:15:00,
2013-05-09 02:20:00,56.8,53.9,29.89,ENE,66,0.0,0.0,90,0.00,,,0.06,Wunderground v.1.13,2013-05-09 06:20:00,
2013-05-09 02:25:00,56.8,53.9,29.89,ENE,65,0.0,0.0,90,0.00,,,0.06,Wunderground v.1.13,2013-05-09 06:25:00,
2013-05-09 02:30:00,56.7,53.8,29.89,ENE,66,0.0,0.0,90,0.00,,,0.06,Wunderground v.1.13,2013-05-09 06:30:00,
2013-05-09 02:35:00,56.5,53.6,29.89,ENE,66,0.0,0.0,90,0.00,,,0.06,Wunderground v.1.13,2013-05-09 06:35:00,
2013-05-09 02:40:00,56.4,53.5,29.89,ENE,66,0.0,0.0,90,0.00,,,0.06,Wunderground v.1.13,2013-05-09 06:40:00,
2013-05-09 02:45:00,56.3,53.4,29.89,ENE,66,0.0,0.0,90,0.00,,,0.06,Wunderground v.1.13,2013-05-09 06:45:00,
2013-05-09 02:55:00,56.2,53.3,29.89,ENE,65,0.0,0.0,90,0.00,,,0.06,Wunderground v.1.13,2013-05-09 06:55:00,
2013-05-09 03:05:00,56.3,53.7,29.89,N/A,-737280,0.0,0.0,91,0.00,,,0.06,Wunderground v.1.13,2013-05-09 07:05:00,
2013-05-09 03:15:00,56.3,53.7,29.89,ENE,66,0.0,0.0,91,0.00,,,0.06,Wunderground v.1.13,2013-05-09 07:15:00,
2013-05-09 03:25:00,56.3,53.7,29.88,ENE,66,0.0,0.0,91,0.00,,,0.06,Wunderground v.1.13,2013-05-09 07:25:00,
2013-05-09 03:30:00,56.3,53.7,29.89,ENE,66,0.0,0.0,91,0.00,,,0.06,Wunderground v.1.13,2013-05-09 07:30:00,
2013-05-09 03:40:00,55.9,53.3,29.89,ENE,65,0.0,0.0,91,0.00,,,0.06,Wunderground v.1.13,2013-05-09 07:40:00,
2013-05-09 03:45:00,55.8,53.2,29.89,ENE,66,0.0,0.0,91,0.00,,,0.06,Wunderground v.1.13,2013-05-09 07:45:00,
2013-05-09 03:50:00,55.7,53.1,29.89,ENE,65,0.0,0.0,91,0.00,,,0.06,Wunderground v.1.13,2013-05-09 07:50:00,
2013-05-09 03:55:00,55.6,53.0,29.89,ENE,66,0.0,0.0,91,0.00,,,0.06,Wunderground v.1.13,2013-05-09 07:55:00,
2013-05-09 04:00:00,55.5,52.9,29.89,ENE,66,0.0,0.0,91,0.00,,,0.06,Wunderground v.1.13,2013-05-09 08:00:00,
2013-05-09 04:05:00,55.4,52.8,29.89,N/A,-737280,0.0,0.0,91,0.00,,,0.06,Wunderground v.1.13,2013-05-09 08:05:00,
2013-05-09 04:15:00,55.4,52.8,29.89,ENE,66,0.0,0.0,91,0.00,,,0.06,Wunderground v.1.13,2013-05-09 08:15:00,
2013-05-09 04:20:00,55.4,52.8,29.89,ENE,66,0.0,0.0,91,0.00,,,0.06,Wunderground v.1.13,2013-05-09 08:20:00,
2013-05-09 04:25:00,55.3,52.7,29.89,ENE,66,0.0,0.0,91,0.00,,,0.06,Wunderground v.1.13,2013-05-09 08:25:00,
2013-05-09 04:35:00,55.3,52.7,29.89,ENE,66,0.0,0.0,91,0.00,,,0.06,Wunderground v.1.13,2013-05-09 08:35:00,
2013-05-09 04:45:00,55.2,52.6,29.89,ENE,66,0.0,0.0,91,0.00,,,0.06,Wunderground v.1.13,2013-05-09 08:45:00,
2013-05-09 04:50:00,55.1,52.5,29.89,ENE,66,0.0,0.0,91,0.00,,,0.06,Wunderground v.1.13,2013-05-09 08:50:00,
2013-05-09 04:55:00,55.1,52.5,29.89,ENE,66,0.0,0.0,91,0.00,,,0.06,Wunderground v.1.13,2013-05-09 08:55:00,
2013-05-09 05:05:00,54.9,52.6,29.89,N/A,-737280,0.0,0.0,92,0.00,,,0.06,Wunderground v.1.13,2013-05-09 09:05:00,
2013-05-09 05:15:00,54.7,52.4,29.89,ENE,65,0.0,0.0,92,0.00,,,0.06,Wunderground v.1.13,2013-05-09 09:15:00,
2013-05-09 05:25:00,54.5,52.2,29.89,ENE,65,0.0,0.0,92,0.00,,,0.06,Wunderground v.1.13,2013-05-09 09:25:00,
2013-05-09 05:30:00,54.5,52.2,29.89,ENE,66,0.0,0.0,92,0.00,,,0.06,Wunderground v.1.13,2013-05-09 09:30:00,
2013-05-09 05:35:00,54.4,52.1,29.89,ENE,66,0.0,0.0,92,0.00,,,0.06,Wunderground v.1.13,2013-05-09 09:35:00,
2013-05-09 05:45:00,54.2,51.9,29.90,ENE,65,0.0,0.0,92,0.00,,,0.06,Wunderground v.1.13,2013-05-09 09:45:00,
2013-05-09 05:50:00,54.1,51.8,29.91,ENE,66,0.0,0.0,92,0.00,,,0.06,Wunderground v.1.13,2013-05-09 09:50:00,
2013-05-09 05:55:00,54.0,51.7,29.91,ENE,65,0.0,0.0,92,0.00,,,0.06,Wunderground v.1.13,2013-05-09 09:55:00,
2013-05-09 06:00:00,53.9,51.6,29.91,ENE,66,0.0,0.0,92,0.00,,,0.06,Wunderground v.1.13,2013-05-09 10:00:00,
2013-05-09 06:05:00,53.9,51.6,29.91,ENE,68,0.0,1.0,92,0.00,,,0.06,Wunderground v.1.13,2013-05-09 10:05:00,
2013-05-09 06:15:00,53.8,51.5,29.91,ENE,65,0.0,0.0,92,0.00,,,0.06,Wunderground v.1.13,2013-05-09 10:15:00,
2013-05-09 06:20:00,53.8,51.5,29.91,ENE,66,0.0,0.0,92,0.00,,,0.06,Wunderground v.1.13,2013-05-09 10:20:00,
2013-05-09 06:30:00,53.7,51.4,29.92,ENE,66,0.0,0.0,92,0.00,,,0.06,Wunderground v.1.13,2013-05-09 10:30:00,
2013-05-09 06:35:00,53.6,51.3,29.92,ENE,66,0.0,0.0,92,0.00,,,0.06,Wunderground v.1.13,2013-05-09 10:35:00,
2013-05-09 06:45:00,53.7,51.4,29.92,ENE,65,0.0,0.0,92,0.00,,,0.06,Wunderground v.1.13,2013-05-09 10:45:00,
2013-05-09 06:50:00,53.8,51.8,29.92,ENE,65,0.0,0.0,93,0.00,,,0.06,Wunderground v.1.13,2013-05-09 10:50:00,
2013-05-09 06:55:00,53.9,51.9,29.93,ENE,66,0.0,0.0,93,0.00,,,0.06,Wunderground v.1.13,2013-05-09 10:55:00,
2013-05-09 07:05:00,53.9,51.9,29.93,ENE,68,0.0,1.0,93,0.00,,,0.06,Wunderground v.1.13,2013-05-09 11:05:00,
2013-05-09 07:15:00,53.9,51.9,29.93,ENE,65,0.0,0.0,93,0.00,,,0.06,Wunderground v.1.13,2013-05-09 11:15:00,
2013-05-09 07:20:00,54.0,52.0,29.94,ENE,65,0.0,0.0,93,0.00,,,0.06,Wunderground v.1.13,2013-05-09 11:20:00,
2013-05-09 07:25:00,54.1,52.1,29.94,ENE,66,0.0,0.0,93,0.00,,,0.06,Wunderground v.1.13,2013-05-09 11:25:00,
2013-05-09 07:35:00,54.3,52.3,29.95,ENE,66,0.0,0.0,93,0.00,,,0.06,Wunderground v.1.13,2013-05-09 11:35:00,
2013-05-09 07:45:00,54.5,52.8,29.95,ENE,66,0.0,0.0,94,0.00,,,0.06,Wunderground v.1.13,2013-05-09 11:45:00,
2013-05-09 07:55:00,54.6,52.9,29.95,ENE,66,0.0,0.0,94,0.00,,,0.06,Wunderground v.1.13,2013-05-09 11:55:00,
2013-05-09 08:05:00,55.0,53.3,29.96,ENE,66,0.0,0.0,94,0.00,,,0.06,Wunderground v.1.13,2013-05-09 12:05:00,
2013-05-09 08:15:00,55.3,53.6,29.96,ENE,66,0.0,0.0,94,0.00,,,0.06,Wunderground v.1.13,2013-05-09 12:15:00,
2013-05-09 08:20:00,55.4,53.7,29.97,ENE,66,0.0,0.0,94,0.00,,,0.06,Wunderground v.1.13,2013-05-09 12:20:00,
2013-05-09 08:25:00,55.5,53.8,29.97,ENE,65,0.0,0.0,94,0.00,,,0.06,Wunderground v.1.13,2013-05-09 12:25:00,
2013-05-09 08:30:00,55.6,53.9,29.96,ENE,66,0.0,0.0,94,0.00,,,0.06,Wunderground v.1.13,2013-05-09 12:30:00,
2013-05-09 08:40:00,55.9,54.2,29.97,ENE,66,0.0,0.0,94,0.00,,,0.06,Wunderground v.1.13,2013-05-09 12:40:00,
2013-05-09 08:50:00,56.2,54.5,29.97,ENE,66,0.0,0.0,94,0.00,,,0.06,Wunderground v.1.13,2013-05-09 12:50:00,
2013-05-09 08:55:00,56.4,55.0,29.97,ENE,66,0.0,0.0,95,0.00,,,0.06,Wunderground v.1.13,2013-05-09 12:55:00,
2013-05-09 09:00:00,56.6,54.9,29.97,ENE,65,0.0,0.0,94,0.00,,,0.06,Wunderground v.1.13,2013-05-09 13:00:00,
2013-05-09 09:05:00,56.8,55.1,29.98,N/A,-737280,0.0,0.0,94,0.00,,,0.06,Wunderground v.1.13,2013-05-09 13:05:00,
2013-05-09 09:15:00,57.1,55.7,29.97,ENE,66,0.0,0.0,95,0.00,,,0.06,Wunderground v.1.13,2013-05-09 13:15:00,
2013-05-09 09:20:00,57.3,55.9,29.97,ENE,66,0.0,0.0,95,0.00,,,0.06,Wunderground v.1.13,2013-05-09 13:20:00,
2013-05-09 09:25:00,57.4,55.7,29.98,ENE,66,0.0,0.0,94,0.00,,,0.06,Wunderground v.1.13,2013-05-09 13:25:00,
2013-05-09 09:30:00,57.5,56.1,29.98,ENE,65,0.0,0.0,95,0.00,,,0.06,Wunderground v.1.13,2013-05-09 13:30:00,
2013-05-09 09:35:00,57.7,56.3,29.97,ENE,66,0.0,0.0,95,0.00,,,0.06,Wunderground v.1.13,2013-05-09 13:35:00,
2013-05-09 09:40:00,58.0,56.3,29.97,ENE,66,0.0,0.0,94,0.00,,,0.06,Wunderground v.1.13,2013-05-09 13:40:00,
2013-05-09 09:45:00,58.2,56.5,29.97,ENE,66,0.0,0.0,94,0.00,,,0.06,Wunderground v.1.13,2013-05-09 13:45:00,
2013-05-09 09:55:00,58.6,56.9,29.97,ENE,66,0.0,0.0,94,0.00,,,0.06,Wunderground v.1.13,2013-05-09 13:55:00,
2013-05-09 10:00:00,59.0,57.6,29.97,ENE,65,0.0,0.0,95,0.00,,,0.06,Wunderground v.1.13,2013-05-09 14:00:00,
2013-05-09 10:05:00,59.0,57.3,29.97,ENE,68,0.0,2.0,94,0.00,,,0.06,Wunderground v.1.13,2013-05-09 14:05:00,
2013-05-09 10:15:00,59.4,57.7,29.97,ENE,66,0.0,0.0,94,0.00,,,0.06,Wunderground v.1.13,2013-05-09 14:15:00,
2013-05-09 10:20:00,59.7,58.0,29.97,ENE,66,0.0,0.0,94,0.00,,,0.06,Wunderground v.1.13,2013-05-09 14:20:00,
2013-05-09 10:25:00,60.1,58.4,29.97,ENE,66,0.0,1.0,94,0.00,,,0.06,Wunderground v.1.13,2013-05-09 14:25:00,
2013-05-09 10:30:00,60.3,58.6,29.97,ENE,67,0.0,0.0,94,0.00,,,0.06,Wunderground v.1.13,2013-05-09 14:30:00,
2013-05-09 10:35:00,60.6,58.9,29.97,ENE,66,0.0,1.0,94,0.00,,,0.06,Wunderground v.1.13,2013-05-09 14:35:00,
2013-05-09 10:45:00,61.7,59.0,29.97,South,173,0.0,1.0,91,0.00,,,0.06,Wunderground v.1.13,2013-05-09 14:45:00,
2013-05-09 10:55:00,62.3,58.7,29.97,South,187,1.0,1.0,88,0.00,,,0.06,Wunderground v.1.13,2013-05-09 14:55:00,
2013-05-09 11:05:00,62.5,58.3,29.97,South,179,0.0,0.0,86,0.00,,,0.06,Wunderground v.1.13,2013-05-09 15:05:00,
2013-05-09 11:15:00,63.3,58.7,29.97,SSE,153,1.0,1.0,85,0.00,,,0.06,Wunderground v.1.13,2013-05-09 15:15:00,
2013-05-09 11:25:00,63.7,58.4,29.97,South,190,1.0,2.0,83,0.00,,,0.06,Wunderground v.1.13,2013-05-09 15:25:00,
2013-05-09 11:35:00,64.2,58.9,29.97,SSW,202,1.0,2.0,83,0.00,,,0.06,Wunderground v.1.13,2013-05-09 15:35:00,
2013-05-09 11:40:00,64.5,59.2,29.97,SSW,202,1.0,1.0,83,0.00,,,0.06,Wunderground v.1.13,2013-05-09 15:40:00,
2013-05-09 11:45:00,64.7,59.1,29.97,South,191,1.0,2.0,82,0.00,,,0.06,Wunderground v.1.13,2013-05-09 15:45:00,
2013-05-09 11:55:00,65.1,58.1,29.97,SW,225,2.0,7.0,78,0.00,,,0.06,Wunderground v.1.13,2013-05-09 15:55:00,
2013-05-09 12:05:00,66.0,57.8,29.97,SSW,203,2.0,6.0,75,0.00,,,0.06,Wunderground v.1.13,2013-05-09 16:05:00,
2013-05-09 12:15:00,67.0,58.4,29.97,SW,221,3.0,4.0,74,0.00,,,0.06,Wunderground v.1.13,2013-05-09 16:15:00,
2013-05-09 12:25:00,67.6,58.2,29.97,WSW,256,3.0,3.0,72,0.00,,,0.06,Wunderground v.1.13,2013-05-09 16:25:00,
2013-05-09 12:30:00,67.9,58.5,29.97,SE,128,3.0,3.0,72,0.00,,,0.06,Wunderground v.1.13,2013-05-09 16:30:00,
2013-05-09 12:40:00,68.4,59.0,29.96,SSW,213,3.0,4.0,72,0.00,,,0.06,Wunderground v.1.13,2013-05-09 16:40:00,
2013-05-09 12:50:00,69.2,59.4,29.96,SSW,194,3.0,3.0,71,0.00,,,0.06,Wunderground v.1.13,2013-05-09 16:50:00,
2013-05-09 13:00:00,69.7,58.3,29.96,SW,230,3.0,5.0,67,0.00,,,0.06,Wunderground v.1.13,2013-05-09 17:00:00,
2013-05-09 13:05:00,69.7,58.3,29.96,SE,132,3.0,4.0,67,0.00,,,0.06,Wunderground v.1.13,2013-05-09 17:05:00,
2013-05-09 13:15:00,69.8,57.9,29.96,SW,223,3.0,3.0,66,0.00,,,0.06,Wunderground v.1.13,2013-05-09 17:15:00,
2013-05-09 13:25:00,71.3,59.4,29.95,SW,230,1.0,4.0,66,0.00,,,0.06,Wunderground v.1.13,2013-05-09 17:25:00,
2013-05-09 13:30:00,71.3,58.5,29.95,SSW,213,3.0,6.0,64,0.00,,,0.06,Wunderground v.1.13,2013-05-09 17:30:00,
2013-05-09 13:40:00,71.2,58.0,29.95,SSE,153,4.0,4.0,63,0.00,,,0.06,Wunderground v.1.13,2013-05-09 17:40:00,
2013-05-09 13:45:00,71.1,58.3,29.95,WSW,240,3.0,4.0,64,0.00,,,0.06,Wunderground v.1.13,2013-05-09 17:45:00,
2013-05-09 13:50:00,71.4,58.6,29.95,SSW,196,4.0,4.0,64,0.00,,,0.06,Wunderground v.1.13,2013-05-09 17:50:00,
2013-05-09 14:00:00,72.0,58.7,29.95,WSW,237,4.0,4.0,63,0.00,,,0.06,Wunderground v.1.13,2013-05-09 18:00:00,
2013-05-09 14:05:00,72.2,58.5,29.95,SE,141,3.0,3.0,62,0.00,,,0.06,Wunderground v.1.13,2013-05-09 18:05:00,
2013-05-09 14:15:00,72.3,58.5,29.95,SW,217,3.0,4.0,62,0.00,,,0.06,Wunderground v.1.13,2013-05-09 18:15:00,
2013-05-09 14:25:00,72.0,57.8,29.95,SSE,162,2.0,2.0,61,0.00,,,0.06,Wunderground v.1.13,2013-05-09 18:25:00,
2013-05-09 14:30:00,71.8,58.1,29.95,SW,225,2.0,4.0,62,0.00,,,0.06,Wunderground v.1.13,2013-05-09 18:30:00,
2013-05-09 14:40:00,72.2,58.5,29.95,SW,225,1.0,1.0,62,0.00,,,0.06,Wunderground v.1.13,2013-05-09 18:40:00,
2013-05-09 14:50:00,73.6,59.3,29.94,SSW,207,1.0,1.0,61,0.00,,,0.06,Wunderground v.1.13,2013-05-09 18:50:00,
2013-05-09 15:00:00,74.7,59.4,29.94,SSW,205,3.0,7.0,59,0.00,,,0.06,Wunderground v.1.13,2013-05-09 19:00:00,
2013-05-09 15:05:00,74.5,58.3,29.94,SW,225,3.0,7.0,57,0.00,,,0.06,Wunderground v.1.13,2013-05-09 19:05:00,
2013-05-09 15:15:00,74.4,59.1,29.94,SE,132,3.0,6.0,59,0.00,,,0.06,Wunderground v.1.13,2013-05-09 19:15:00,
2013-05-09 15:25:00,72.1,57.9,29.94,SE,140,2.0,2.0,61,0.00,,,0.06,Wunderground v.1.13,2013-05-09 19:25:00,
2013-05-09 15:30:00,72.0,58.7,29.93,SSE,149,1.0,1.0,63,0.00,,,0.06,Wunderground v.1.13,2013-05-09 19:30:00,
2013-05-09 15:35:00,71.8,57.6,29.93,SSE,156,1.0,1.0,61,0.00,,,0.06,Wunderground v.1.13,2013-05-09 19:35:00,
2013-05-09 15:45:00,71.6,60.1,29.93,SE,128,0.0,1.0,67,0.00,,,0.06,Wunderground v.1.13,2013-05-09 19:45:00,
2013-05-09 15:50:00,72.3,60.3,29.93,SE,133,1.0,4.0,66,0.00,,,0.06,Wunderground v.1.13,2013-05-09 19:50:00,
2013-05-09 15:55:00,73.4,59.6,29.92,South,180,1.0,2.0,62,0.00,,,0.06,Wunderground v.1.13,2013-05-09 19:55:00,
2013-05-09 16:00:00,73.9,59.6,29.92,SE,145,1.0,1.0,61,0.00,,,0.06,Wunderground v.1.13,2013-05-09 20:00:00,
2013-05-09 16:05:00,74.2,59.9,29.92,South,180,1.0,4.0,61,0.00,,,0.06,Wunderground v.1.13,2013-05-09 20:05:00,
2013-05-09 16:15:00,75.3,59.5,29.92,SE,133,1.0,2.0,58,0.00,,,0.06,Wunderground v.1.13,2013-05-09 20:15:00,
2013-05-09 16:25:00,75.6,57.3,29.92,SW,236,3.0,4.0,53,0.00,,,0.06,Wunderground v.1.13,2013-05-09 20:25:00,
2013-05-09 16:30:00,76.1,56.7,29.92,South,171,3.0,3.0,51,0.00,,,0.06,Wunderground v.1.13,2013-05-09 20:30:00,
2013-05-09 16:35:00,76.2,56.7,29.92,South,177,4.0,4.0,51,0.00,,,0.06,Wunderground v.1.13,2013-05-09 20:35:00,
2013-05-09 16:45:00,77.0,58.0,29.92,SSW,205,2.0,4.0,52,0.00,,,0.06,Wunderground v.1.13,2013-05-09 20:45:00,
2013-05-09 16:50:00,77.3,57.2,29.92,SW,223,3.0,6.0,50,0.00,,,0.06,Wunderground v.1.13,2013-05-09 20:50:00,
2013-05-09 16:55:00,77.3,56.1,29.92,WNW,290,3.0,3.0,48,0.00,,,0.06,Wunderground v.1.13,2013-05-09 20:55:00,
2013-05-09 17:00:00,77.4,57.9,29.91,SW,236,3.0,8.0,51,0.00,,,0.06,Wunderground v.1.13,2013-05-09 21:00:00,
2013-05-09 17:05:00,77.0,56.9,29.91,SSW,203,4.0,11.0,50,0.00,,,0.06,Wunderground v.1.13,2013-05-09 21:05:00,
2013-05-09 17:15:00,77.4,56.7,29.91,SW,234,3.0,3.0,49,0.00,,,0.06,Wunderground v.1.13,2013-05-09 21:15:00,
2013-05-09 17:25:00,77.4,56.2,29.91,WSW,241,5.0,6.0,48,0.00,,,0.06,Wunderground v.1.13,2013-05-09 21:25:00,
2013-05-09 17:30:00,77.3,55.5,29.91,SSE,155,3.0,3.0,47,0.00,,,0.06,Wunderground v.1.13,2013-05-09 21:30:00,
2013-05-09 17:35:00,77.6,56.4,29.91,West,266,2.0,2.0,48,0.00,,,0.06,Wunderground v.1.13,2013-05-09 21:35:00,
2013-05-09 17:40:00,77.6,55.2,29.91,WSW,249,3.0,5.0,46,0.00,,,0.06,Wunderground v.1.13,2013-05-09 21:40:00,
2013-05-09 17:45:00,77.3,56.6,29.91,SSW,202,4.0,5.0,49,0.00,,,0.06,Wunderground v.1.13,2013-05-09 21:45:00,
2013-05-09 17:55:00,77.8,55.4,29.91,West,278,3.0,3.0,46,0.00,,,0.06,Wunderground v.1.13,2013-05-09 21:55:00,
2013-05-09 18:00:00,78.2,56.3,29.91,WSW,256,3.0,3.0,47,0.00,,,0.06,Wunderground v.1.13,2013-05-09 22:00:00,
2013-05-09 18:05:00,78.1,55.6,29.91,South,180,1.0,3.0,46,0.00,,,0.06,Wunderground v.1.13,2013-05-09 22:05:00,
2013-05-09 18:15:00,78.1,56.8,29.91,NW,305,1.0,1.0,48,0.00,,,0.06,Wunderground v.1.13,2013-05-09 22:15:00,
2013-05-09 18:20:00,78.1,57.9,29.91,SSW,211,1.0,1.0,50,0.00,,,0.06,Wunderground v.1.13,2013-05-09 22:20:00,
2013-05-09 18:30:00,77.1,57.0,29.91,SW,228,1.0,1.0,50,0.00,,,0.06,Wunderground v.1.13,2013-05-09 22:30:00,
2013-05-09 18:35:00,76.9,58.5,29.91,SSE,156,1.0,2.0,53,0.00,,,0.06,Wunderground v.1.13,2013-05-09 22:35:00,
2013-05-09 18:40:00,77.0,55.2,29.91,SSE,157,1.0,1.0,47,0.00,,,0.06,Wunderground v.1.13,2013-05-09 22:40:00,
2013-05-09 18:45:00,77.3,56.1,29.91,SSE,157,1.0,1.0,48,0.00,,,0.06,Wunderground v.1.13,2013-05-09 22:45:00,
2013-05-09 18:50:00,77.1,55.9,29.91,SSE,156,1.0,1.0,48,0.00,,,0.06,Wunderground v.1.13,2013-05-09 22:50:00,
2013-05-09 19:00:00,76.8,55.0,29.91,WSW,254,2.0,2.0,47,0.00,,,0.06,Wunderground v.1.13,2013-05-09 23:00:00,
2013-05-09 19:05:00,76.9,55.1,29.91,ESE,122,1.0,1.0,47,0.00,,,0.06,Wunderground v.1.13,2013-05-09 23:05:00,
2013-05-09 19:15:00,76.2,55.1,29.91,ESE,122,1.0,1.0,48,0.00,,,0.06,Wunderground v.1.13,2013-05-09 23:15:00,
2013-05-09 19:20:00,75.7,55.2,29.91,ESE,122,1.0,2.0,49,0.00,,,0.06,Wunderground v.1.13,2013-05-09 23:20:00,
2013-05-09 19:25:00,75.0,54.0,29.91,ESE,122,1.0,2.0,48,0.00,,,0.06,Wunderground v.1.13,2013-05-09 23:25:00,
2013-05-09 19:30:00,74.3,56.6,29.92,ESE,122,1.0,2.0,54,0.00,,,0.06,Wunderground v.1.13,2013-05-09 23:30:00,
2013-05-09 19:35:00,73.4,54.2,29.92,ESE,122,1.0,1.0,51,0.00,,,0.06,Wunderground v.1.13,2013-05-09 23:35:00,
2013-05-09 19:40:00,72.9,53.7,29.92,ESE,122,1.0,1.0,51,0.00,,,0.06,Wunderground v.1.13,2013-05-09 23:40:00,
2013-05-09 19:50:00,72.1,54.0,29.92,ESE,122,1.0,1.0,53,0.00,,,0.06,Wunderground v.1.13,2013-05-09 23:50:00,
2013-05-09 19:55:00,71.5,53.5,29.92,ESE,122,1.0,1.0,53,0.00,,,0.06,Wunderground v.1.13,2013-05-09 23:55:00,
2013-05-09 20:05:00,70.5,53.6,29.93,ESE,113,0.0,1.0,55,0.00,,,0.06,Wunderground v.1.13,2013-05-10 00:05:00,
2013-05-09 20:15:00,69.5,54.1,29.94,ESE,122,0.0,0.0,58,0.00,,,0.06,Wunderground v.1.13,2013-05-10 00:15:00,
2013-05-09 20:20:00,69.0,54.1,29.94,ESE,122,0.0,1.0,59,0.00,,,0.06,Wunderground v.1.13,2013-05-10 00:20:00,
2013-05-09 20:25:00,68.5,54.1,29.94,ESE,122,0.0,0.0,60,0.00,,,0.06,Wunderground v.1.13,2013-05-10 00:25:00,
2013-05-09 20:30:00,68.0,54.0,29.94,ESE,122,0.0,1.0,61,0.00,,,0.06,Wunderground v.1.13,2013-05-10 00:30:00,
2013-05-09 20:40:00,67.2,53.7,29.95,ESE,122,0.0,0.0,62,0.00,,,0.06,Wunderground v.1.13,2013-05-10 00:40:00,
2013-05-09 20:45:00,66.7,52.8,29.95,ESE,122,0.0,0.0,61,0.00,,,0.06,Wunderground v.1.13,2013-05-10 00:45:00,
2013-05-09 20:50:00,66.3,53.3,29.95,ESE,122,0.0,0.0,63,0.00,,,0.06,Wunderground v.1.13,2013-05-10 00:50:00,
2013-05-09 20:55:00,65.9,54.2,29.96,SSE,164,0.0,2.0,66,0.00,,,0.06,Wunderground v.1.13,2013-05-10 00:55:00,
2013-05-09 21:00:00,64.9,52.8,29.96,ENE,59,1.0,3.0,65,0.00,,,0.06,Wunderground v.1.13,2013-05-10 01:00:00,
2013-05-09 21:05:00,64.4,53.6,29.96,SSE,149,1.0,1.0,68,0.00,,,0.06,Wunderground v.1.13,2013-05-10 01:05:00,
2013-05-09 21:15:00,63.8,53.0,29.96,SSE,149,0.0,0.0,68,0.00,,,0.06,Wunderground v.1.13,2013-05-10 01:15:00,
2013-05-09 21:20:00,63.5,52.7,29.96,SSE,149,0.0,0.0,68,0.00,,,0.06,Wunderground v.1.13,2013-05-10 01:20:00,
2013-05-09 21:25:00,63.3,53.0,29.96,SSE,149,0.0,0.0,69,0.00,,,0.06,Wunderground v.1.13,2013-05-10 01:25:00,
2013-05-09 21:30:00,63.1,52.8,29.96,SSE,149,0.0,0.0,69,0.00,,,0.06,Wunderground v.1.13,2013-05-10 01:30:00,
2013-05-09 21:35:00,63.0,53.4,29.97,SSE,149,0.0,0.0,71,0.00,,,0.06,Wunderground v.1.13,2013-05-10 01:35:00,
2013-05-09 21:40:00,62.7,53.2,29.97,SSE,149,0.0,0.0,71,0.00,,,0.06,Wunderground v.1.13,2013-05-10 01:40:00,
2013-05-09 21:45:00,62.4,53.3,29.96,SSE,149,0.0,0.0,72,0.00,,,0.06,Wunderground v.1.13,2013-05-10 01:45:00,
2013-05-09 21:55:00,62.1,53.3,29.97,SSE,149,0.0,0.0,73,0.00,,,0.06,Wunderground v.1.13,2013-05-10 01:55:00,
2013-05-09 22:05:00,61.6,53.2,29.97,N/A,-737280,0.0,0.0,74,0.00,,,0.06,Wunderground v.1.13,2013-05-10 02:05:00,
2013-05-09 22:15:00,61.2,53.2,29.97,SSE,150,0.0,0.0,75,0.00,,,0.06,Wunderground v.1.13,2013-05-10 02:15:00,
2013-05-09 22:20:00,61.0,53.0,29.97,SSE,150,0.0,0.0,75,0.00,,,0.06,Wunderground v.1.13,2013-05-10 02:20:00,
2013-05-09 22:25:00,60.9,52.9,29.97,SSE,150,0.0,0.0,75,0.00,,,0.06,Wunderground v.1.13,2013-05-10 02:25:00,
2013-05-09 22:35:00,60.5,52.5,29.97,SSE,150,0.0,0.0,75,0.00,,,0.06,Wunderground v.1.13,2013-05-10 02:35:00,
2013-05-09 22:40:00,60.3,52.7,29.97,SSE,150,0.0,0.0,76,0.00,,,0.06,Wunderground v.1.13,2013-05-10 02:40:00,
2013-05-09 22:45:00,60.2,52.6,29.97,SSE,149,0.0,0.0,76,0.00,,,0.06,Wunderground v.1.13,2013-05-10 02:45:00,
2013-05-09 22:50:00,60.0,52.8,29.97,SSE,150,0.0,0.0,77,0.00,,,0.06,Wunderground v.1.13,2013-05-10 02:50:00,
2013-05-09 22:55:00,59.9,52.7,29.97,SSE,149,0.0,0.0,77,0.00,,,0.06,Wunderground v.1.13,2013-05-10 02:55:00,
2013-05-09 23:00:00,59.8,52.6,29.97,SSE,149,0.0,0.0,77,0.00,,,0.06,Wunderground v.1.13,2013-05-10 03:00:00,
2013-05-09 23:05:00,59.7,52.8,29.97,N/A,-737280,0.0,0.0,78,0.00,,,0.06,Wunderground v.1.13,2013-05-10 03:05:00,
2013-05-09 23:15:00,59.4,52.9,29.97,SSE,150,0.0,0.0,79,0.00,,,0.06,Wunderground v.1.13,2013-05-10 03:15:00,
2013-05-09 23:25:00,59.0,52.8,29.97,SSE,149,0.0,0.0,80,0.00,,,0.06,Wunderground v.1.13,2013-05-10 03:25:00,
2013-05-09 23:30:00,59.0,52.8,29.97,SSE,150,0.0,0.0,80,0.00,,,0.06,Wunderground v.1.13,2013-05-10 03:30:00,
2013-05-09 23:35:00,58.9,53.1,29.97,SSE,150,0.0,0.0,81,0.00,,,0.06,Wunderground v.1.13,2013-05-10 03:35:00,
2013-05-09 23:40:00,58.8,52.6,29.97,SSE,150,0.0,0.0,80,0.00,,,0.06,Wunderground v.1.13,2013-05-10 03:40:00,
2013-05-09 23:45:00,58.6,52.8,29.97,SSE,149,0.0,0.0,81,0.00,,,0.06,Wunderground v.1.13,2013-05-10 03:45:00,
2013-05-09 23:50:00,58.5,52.7,29.97,SSE,150,0.0,0.0,81,0.00,,,0.06,Wunderground v.1.13,2013-05-10 03:50:00,